QPF
0.00 0.00 0.00 0.00 0.00 0.00 0.00 0.00 0.00 0.00 0.00 0.00 0.00 0.00 0.00 0.00 0.00 0.00 0.00 0.00 0.00 0.00 0.00 0.00 0.00 0.00 0.00 0.00 0.00 0.00 0.00 0.00 0.00 0.00 0.00 0.00 0.00 0.00
0.00 0.00 0.00 0.00 0.00 0.00 0.00 0.00 0.00 0.00 0.00 0.00 0.00 0.00 0.00 0.00 0.00 0.00 0.00 0.00 0.00 0.00 0.00 0.00 0.00 0.00 0.00 0.00 0.00 0.00 0.00 0.00 0.00 0.00 0.00 0.00 0.00 0.00
0.00 0.00 0.00 0.00 0.00 0.00 0.00 0.00 0.00 0.00 0.00 0.00 0.00 0.00 0.00 0.00 0.00 0.00 0.00 0.00 0.00 0.00 0.00 0.00 0.00 0.00 0.00 0.00 0.00 0.00 0.00 0.00 0.00 0.00 0.00 0.00 0.00 0.00
0.00 0.00 0.00 0.00 0.00 0.00 0.00 0.00 0.00 0.00 0.00 0.00 0.00 0.00 0.00 0.00 0.00 0.00 0.00 0.00 0.00 0.00 0.00 0.00 0.00 0.00 0.00 0.00 0.00 0.00 0.00 0.00 0.00 0.00 0.00 0.00 0.00 0.00
0.00 0.00 0.00 0.00 0.00 0.00 0.00 0.00 0.00 0.00 0.00 0.00 0.00 0.00 0.00 0.00 0.00 0.00 0.00 0.00 0.00 0.00 0.00 0.00 0.00 0.00 0.00 0.00 0.00 0.00 0.00 0.00 0.00 0.00 0.00 0.00 0.00 0.00
0.00 0.00 0.00 0.00 0.00 0.00 0.00 0.00 0.00 0.00 0.00 0.00 0.00 0.00 0.00 0.00 0.00 0.00 0.00 0.00 0.00 0.00 0.00 0.00 0.00 0.00 0.00 0.00 0.00 0.00 0.00 0.00 0.00 0.00 0.00 0.00 0.00 0.00
0.00 0.00 0.00 0.00 0.00 0.00 0.00 0.00 0.00 0.00 0.00 0.00 0.00 0.00 0.00 0.00 0.00 0.00 0.00 0.00 0.00 0.00 0.00 0.00 0.00 0.00 0.00 0.00 0.00 0.00 0.00 0.00 0.00 0.00 0.00 0.00 0.00 0.00
0.00 0.00 0.00 0.00 0.00 0.00 0.01 0.01 0.02 0.00 0.00 0.00 0.00 0.00 0.00 0.00 0.00 0.00 0.00 0.00 0.00 0.00 0.00 0.00 0.00 0.00 0.00 0.00 0.00 0.00 0.00 0.00 0.00 0.00 0.00 0.00 0.00 0.00
0.00 0.00 0.00 0.00 0.00 0.00 0.02 0.00 0.01 0.02 0.00 0.00 0.00 0.00 0.00 0.02 0.01 0.00 0.01 0.02 0.01 0.02 0.01 0.00 0.00 0.00 0.00 0.00 0.00 0.00 0.00 0.00 0.00 0.00 0.00 0.00 0.00 0.00
0.00 0.00 0.00 0.00 0.00 0.00 0.00 0.00 0.00 0.00 0.00 0.00 0.00 0.01 0.03 0.02 0.00 0.01 0.04 0.01 0.01 0.00 0.02 0.00 0.00 0.00 0.00 0.00 0.00 0.00 0.00 0.00 0.00 0.00 0.00 0.00 0.00 0.00
0.00 0.00 0.00 0.00 0.00 0.00 0.00 0.00 0.00 0.00 0.00 0.00 0.00 0.00 0.00 0.00 0.00 0.00 0.02 0.03 0.01 0.00 0.00 0.00 0.00 0.00 0.00 0.00 0.00 0.00 0.00 0.00 0.00 0.00 0.00 0.00 0.00 0.00
0.00 0.00 0.00 0.00 0.00 0.01 0.00 0.00 0.00 0.02 0.03 0.01 0.00 0.00 0.00 0.00 0.00 0.01 0.01 0.00 0.00 0.00 0.00 0.00 0.00 0.00 0.00 0.00 0.00 0.00 0.00 0.00 0.00 0.00 0.00 0.00 0.00 0.00
0.00 0.00 0.00 0.00 0.00 0.04 0.05 0.08 0.07 0.05 0.03 0.01 0.01 0.00 0.00 0.00 0.00 0.00 0.00 0.00 0.00 0.00 0.00 0.00 0.00 0.00 0.00 0.00 0.00 0.00 0.00 0.00 0.00 0.00 0.00 0.00 0.00 0.00
0.00 0.00 0.00 0.00 0.01 0.03 0.06 0.13 0.12 0.05 0.03 0.01 0.01 0.00 0.00 0.00 0.00 0.00 0.00 0.00 0.00 0.00 0.00 0.00 0.00 0.00 0.00 0.00 0.00 0.00 0.00 0.00 0.00 0.00 0.00 0.00 0.00 0.00
0.00 0.00 0.02 0.05 0.05 0.08 0.10 0.11 0.06 0.01 0.00 0.00 0.00 0.00 0.00 0.00 0.00 0.00 0.00 0.00 0.00 0.00 0.00 0.00 0.00 0.00 0.00 0.00 0.00 0.00 0.00 0.00 0.00 0.00 0.00 0.00 0.00 0.00
0.04 0.05 0.11 0.14 0.17 0.16 0.16 0.11 0.03 0.00 0.00 0.00 0.00 0.00 0.00 0.00 0.00 0.00 0.00 0.00 0.00 0.00 0.00 0.00 0.00 0.00 0.00 0.00 0.00 0.00 0.00 0.00 0.00 0.00 0.00 0.00 0.00 0.00
0.58 0.61 0.54 0.34 0.22 0.15 0.10 0.05 0.02 0.00 0.00 0.00 0.00 0.00 0.00 0.00 0.00 0.00 0.00 0.00 0.00 0.00 0.00 0.00 0.00 0.00 0.00 0.00 0.00 0.00 0.00 0.00 0.00 0.00 0.00 0.00 0.00 0.00
1.02 1.09 0.73 0.38 0.24 0.22 0.17 0.08 0.01 0.00 0.00 0.00 0.00 0.00 0.00 0.00 0.00 0.00 0.00 0.00 0.00 0.00 0.00 0.00 0.00 0.00 0.00 0.00 0.00 0.00 0.00 0.00 0.00 0.00 0.00 0.00 0.00 0.00
0.19 0.17 0.20 0.23 0.23 0.22 0.18 0.09 0.01 0.00 0.00 0.00 0.00 0.00 0.00 0.00 0.00 0.00 0.00 0.00 0.00 0.00 0.00 0.00 0.00 0.00 0.00 0.00 0.00 0.00 0.00 0.00 0.00 0.00 0.00 0.00 0.00 0.00
0.09 0.08 0.08 0.08 0.06 0.05 0.04 0.02 0.00 0.00 0.00 0.00 0.00 0.00 0.00 0.00 0.00 0.00 0.00 0.00 0.00 0.00 0.00 0.00 0.00 0.00 0.00 0.00 0.00 0.00 0.00 0.00 0.00 0.00 0.00 0.00 0.00 0.00
0.09 0.10 0.09 0.08 0.04 0.00 0.00 0.00 0.00 0.00 0.00 0.00 0.00 0.00 0.00 0.00 0.00 0.00 0.00 0.00 0.00 0.00 0.00 0.00 0.00 0.00 0.00 0.00 0.00 0.00 0.00 0.00 0.00 0.00 0.00 0.00 0.00 0.00
0.09 0.09 0.09 0.07 0.02 0.00 0.00 0.00 0.00 0.00 0.00 0.00 0.00 0.00 0.00 0.00 0.00 0.00 0.00 0.00 0.00 0.00 0.00 0.00 0.00 0.00 0.00 0.00 0.00 0.00 0.00 0.00 0.00 0.00 0.00 0.00 0.00 0.00
0.03 0.02 0.01 0.01 0.01 0.00 0.00 0.00 0.00 0.00 0.00 0.00 0.00 0.00 0.00 0.00 0.00 0.00 0.00 0.00 0.00 0.00 0.00 0.00 0.00 0.00 0.00 0.00 0.00 0.00 0.00 0.00 0.00 0.00 0.00 0.00 0.00 0.00
MSLP
1017.97 1018.32 1018.34 1017.86 1018.04 1018.11 1018.25 1018.28 1017.90 1017.33 1017.23 1017.81 1018.04 1018.45 1018.70 1018.85 1019.32 1019.73 1019.77 1020.06 1020.59 1021.07 1021.35 1021.34 1021.28 1021.26 1021.29 1021.30 1021.31 1021.33 1021.37 1021.38 1021.21 1021.04 1020.92 1020.86 1020.79 1020.69
1017.36 1017.69 1018.04 1017.59 1017.88 1018.10 1018.16 1018.13 1018.00 1017.61 1017.21 1017.42 1018.10 1018.16 1018.64 1018.69 1019.53 1019.69 1019.55 1019.99 1020.25 1020.57 1020.72 1021.03 1021.11 1021.19 1021.19 1021.23 1021.05 1020.82 1020.71 1020.70 1020.75 1020.63 1020.49 1020.41 1020.33 1020.23
1016.99 1017.23 1017.64 1017.70 1017.57 1017.75 1017.99 1017.83 1017.64 1017.81 1017.74 1017.42 1017.90 1018.37 1019.07 1019.17 1018.92 1019.19 1019.14 1019.28 1019.14 1019.84 1020.24 1020.60 1020.93 1021.00 1020.86 1020.73 1020.80 1020.78 1020.55 1020.35 1020.32 1020.25 1020.11 1020.10 1020.03 1019.95
1016.33 1016.86 1017.17 1017.47 1017.94 1017.91 1017.63 1017.53 1017.43 1017.86 1017.93 1017.60 1017.75 1018.13 1018.98 1018.98 1018.74 1018.91 1018.99 1018.54 1018.54 1019.79 1020.15 1020.35 1020.07 1020.11 1020.21 1020.33 1020.41 1020.42 1020.38 1020.23 1020.06 1019.96 1019.90 1019.79 1019.74 1019.71
1015.39 1015.95 1016.55 1016.91 1017.15 1016.97 1017.28 1017.16 1017.67 1017.87 1017.89 1017.82 1017.48 1017.79 1017.89 1018.51 1019.02 1019.17 1018.85 1018.79 1018.73 1018.97 1019.10 1019.29 1019.57 1019.60 1019.74 1019.82 1019.74 1019.87 1020.01 1019.90 1019.64 1019.72 1019.52 1019.70 1019.45 1019.33
1014.47 1014.97 1015.51 1015.98 1016.39 1016.75 1016.91 1017.28 1017.41 1017.32 1017.64 1017.73 1017.37 1017.30 1017.68 1017.99 1018.40 1018.30 1018.29 1018.37 1017.89 1017.83 1018.19 1018.54 1018.85 1019.00 1019.17 1019.27 1019.26 1019.32 1019.47 1019.71 1019.62 1019.28 1019.35 1019.47 1019.34 1019.18
1013.47 1013.98 1014.53 1015.18 1015.56 1015.95 1016.34 1016.79 1016.93 1017.28 1016.99 1016.88 1016.97 1016.82 1016.97 1017.32 1017.84 1017.86 1018.01 1018.48 1017.56 1017.64 1017.80 1017.84 1018.14 1017.99 1017.66 1018.48 1018.14 1018.25 1018.75 1019.42 1019.48 1019.49 1019.29 1019.38 1019.22 1018.97
1012.29 1012.97 1013.70 1014.35 1014.94 1015.40 1015.78 1015.92 1016.21 1016.62 1016.54 1016.30 1016.37 1016.25 1016.62 1016.95 1017.46 1017.66 1017.73 1017.17 1017.09 1017.21 1017.95 1017.44 1017.00 1017.01 1016.84 1016.46 1016.95 1017.84 1018.40 1018.71 1018.81 1018.68 1018.68 1018.79 1018.67 1018.58
1011.34 1011.85 1012.38 1012.85 1013.78 1014.41 1015.19 1015.54 1015.77 1016.03 1016.06 1016.17 1016.38 1016.11 1016.15 1016.61 1017.03 1017.45 1017.53 1017.36 1017.30 1017.04 1017.74 1016.89 1016.61 1016.54 1016.47 1016.77 1017.52 1017.75 1018.10 1018.41 1018.59 1018.59 1018.44 1018.23 1018.05 1018.00
1010.19 1010.71 1011.02 1011.33 1012.25 1013.35 1013.84 1014.62 1014.93 1015.18 1015.53 1015.91 1015.98 1016.06 1016.21 1016.44 1016.93 1016.99 1017.09 1017.46 1017.32 1016.96 1017.34 1017.54 1017.00 1017.00 1016.76 1016.54 1017.32 1017.58 1017.93 1018.09 1018.11 1018.05 1017.96 1017.81 1017.70 1017.64
1008.60 1009.36 1010.04 1010.63 1011.17 1012.23 1012.88 1013.42 1013.93 1014.14 1014.57 1015.47 1016.07 1016.37 1016.40 1016.61 1016.63 1016.62 1016.65 1016.99 1016.50 1016.13 1016.73 1017.08 1016.63 1016.32 1016.57 1016.79 1016.53 1017.24 1017.22 1017.37 1017.41 1017.39 1017.34 1017.18 1017.05 1016.99
1007.59 1008.16 1008.73 1009.41 1010.54 1011.64 1012.43 1012.59 1012.78 1013.07 1014.10 1014.94 1015.76 1016.08 1016.50 1016.64 1017.11 1016.76 1016.22 1015.99 1015.73 1015.87 1016.37 1016.93 1016.76 1016.64 1016.24 1016.01 1016.15 1016.29 1016.23 1016.37 1016.80 1016.70 1016.56 1016.42 1016.31 1015.88
1005.84 1006.69 1007.42 1008.68 1009.72 1010.36 1011.21 1011.64 1011.78 1012.60 1013.41 1013.90 1014.44 1014.84 1015.35 1015.80 1016.25 1016.55 1016.16 1015.97 1015.87 1015.87 1016.80 1016.85 1016.92 1016.66 1016.62 1016.03 1016.18 1015.99 1015.89 1015.68 1015.66 1015.58 1015.72 1015.62 1015.68 1015.82
1004.14 1004.85 1006.02 1007.47 1008.63 1009.64 1010.48 1010.73 1011.51 1012.29 1012.84 1013.14 1013.48 1013.56 1014.06 1014.50 1014.84 1015.42 1015.99 1016.09 1016.02 1016.41 1016.61 1017.28 1017.29 1017.02 1016.70 1016.04 1015.50 1015.51 1015.56 1015.50 1015.46 1015.13 1014.78 1014.70 1014.91 1014.73
1003.59 1004.43 1005.91 1007.51 1008.36 1009.40 1010.31 1010.53 1010.50 1011.16 1011.46 1012.56 1012.93 1013.12 1013.31 1013.70 1014.32 1015.65 1015.91 1016.17 1016.58 1016.86 1016.73 1016.95 1017.12 1016.98 1016.71 1015.99 1015.32 1015.11 1015.36 1015.23 1014.98 1014.67 1014.43 1014.12 1013.73 1013.65
1004.77 1005.20 1006.22 1008.10 1009.69 1010.39 1010.40 1010.81 1010.80 1010.34 1010.10 1011.99 1012.34 1012.68 1012.95 1013.71 1014.28 1014.84 1014.93 1015.39 1015.73 1015.34 1016.07 1016.53 1017.07 1017.46 1016.90 1015.90 1015.57 1014.93 1014.78 1014.74 1014.72 1014.44 1014.16 1013.86 1013.53 1013.37
1004.79 1005.52 1006.36 1007.30 1009.04 1009.60 1010.60 1010.78 1010.66 1009.79 1009.70 1011.14 1011.69 1012.18 1012.43 1013.39 1013.57 1014.11 1014.13 1014.42 1015.12 1014.83 1014.77 1015.28 1016.15 1016.82 1016.69 1016.30 1015.69 1014.75 1014.41 1014.38 1014.44 1014.28 1014.46 1013.49 1013.13 1012.73
1003.54 1004.56 1005.31 1005.15 1007.26 1007.93 1009.77 1009.96 1009.80 1009.61 1009.55 1010.22 1010.91 1011.64 1012.10 1012.78 1012.87 1013.26 1013.33 1013.98 1014.44 1014.29 1014.36 1014.65 1014.97 1015.25 1015.40 1014.79 1014.70 1014.44 1014.28 1014.16 1014.33 1014.41 1014.35 1013.22 1012.39 1012.09
1001.99 1002.94 1003.38 1004.78 1005.45 1006.55 1007.30 1008.91 1009.35 1009.62 1009.81 1009.60 1010.61 1011.07 1011.58 1012.10 1012.60 1012.65 1012.85 1013.54 1013.92 1013.98 1014.18 1014.67 1014.91 1015.04 1014.73 1014.16 1014.07 1014.49 1014.57 1014.46 1014.34 1014.08 1013.85 1013.41 1012.54 1011.93
1000.86 1000.86 1001.68 1001.29 1003.36 1004.99 1006.47 1006.27 1008.38 1009.20 1008.98 1009.14 1009.82 1010.46 1010.93 1011.58 1012.11 1012.08 1012.57 1013.20 1013.51 1013.54 1013.62 1014.51 1014.88 1015.09 1014.68 1014.17 1014.19 1014.14 1014.47 1014.52 1014.25 1014.15 1013.96 1013.50 1012.81 1012.14
1000.52 1000.72 1001.66 1001.69 1003.16 1004.51 1005.08 1005.55 1006.83 1007.92 1008.28 1008.70 1009.30 1009.86 1010.47 1011.01 1011.36 1011.58 1012.14 1013.01 1013.32 1013.29 1013.49 1013.91 1013.96 1015.35 1015.01 1014.61 1014.17 1013.05 1013.05 1014.09 1014.32 1014.45 1014.10 1013.54 1012.66 1011.92
1000.32 1000.57 1001.04 1002.06 1002.96 1003.79 1004.55 1005.15 1006.23 1006.97 1007.90 1008.67 1008.99 1009.52 1010.22 1010.59 1010.70 1011.05 1011.52 1012.16 1012.89 1012.81 1013.28 1013.61 1013.94 1014.55 1014.61 1013.74 1013.25 1012.86 1012.76 1012.81 1013.20 1013.30 1013.53 1013.54 1013.35 1012.76
999.50 1000.58 1001.71 1002.07 1002.50 1002.39 1003.83 1004.59 1005.34 1006.55 1007.86 1008.39 1008.81 1009.32 1009.84 1010.08 1010.56 1010.84 1011.22 1011.82 1011.78 1012.18 1012.74 1013.17 1013.47 1013.49 1013.60 1013.17 1013.18 1012.84 1012.33 1012.40 1012.26 1012.04 1012.31 1012.79 1013.08 1013.21
Thickness
5770 5766 5764 5768 5765 5761 5754 5750 5747 5742 5745 5747 5742 5741 5735 5732 5726 5718 5716 5713 5707 5700 5695 5694 5692 5689 5685 5682 5680 5678 5675 5674 5676 5677 5677 5678 5679 5680
5775 5770 5766 5769 5765 5760 5756 5754 5753 5750 5744 5750 5742 5741 5734 5730 5721 5716 5714 5709 5704 5698 5695 5689 5687 5682 5678 5674 5675 5676 5675 5673 5670 5671 5673 5674 5675 5676
5775 5772 5767 5767 5766 5762 5758 5757 5757 5753 5741 5746 5744 5738 5730 5726 5723 5718 5715 5709 5705 5700 5694 5688 5681 5676 5675 5673 5669 5666 5666 5668 5665 5664 5666 5665 5666 5667
5777 5772 5769 5767 5759 5759 5760 5758 5757 5750 5743 5737 5739 5736 5726 5724 5723 5719 5711 5712 5708 5696 5688 5684 5685 5678 5672 5666 5661 5658 5656 5656 5657 5657 5656 5657 5658 5658
5784 5778 5772 5768 5763 5765 5760 5758 5751 5747 5743 5736 5735 5734 5732 5724 5716 5710 5710 5706 5700 5698 5694 5687 5678 5672 5666 5662 5659 5655 5650 5647 5647 5645 5644 5644 5647 5650
5789 5784 5779 5774 5768 5764 5760 5754 5751 5747 5741 5735 5734 5732 5726 5722 5715 5709 5706 5703 5703 5699 5691 5683 5675 5668 5662 5655 5652 5650 5643 5636 5635 5635 5632 5633 5635 5636
5792 5788 5783 5777 5773 5769 5762 5755 5752 5743 5742 5738 5731 5730 5723 5717 5708 5709 5701 5693 5696 5694 5685 5676 5669 5666 5663 5653 5648 5643 5637 5628 5626 5624 5625 5620 5621 5624
5794 5791 5784 5778 5772 5767 5761 5759 5755 5745 5741 5739 5733 5728 5720 5715 5708 5702 5696 5693 5684 5686 5674 5670 5670 5664 5659 5655 5648 5636 5629 5624 5620 5619 5616 5613 5612 5612
5797 5792 5788 5786 5777 5771 5759 5754 5750 5745 5742 5738 5727 5724 5720 5714 5707 5697 5691 5687 5679 5679 5668 5663 5663 5659 5656 5646 5637 5629 5622 5616 5610 5605 5603 5603 5603 5603
5800 5796 5792 5791 5784 5770 5765 5756 5751 5747 5741 5734 5730 5723 5716 5710 5702 5698 5691 5680 5676 5674 5667 5650 5655 5649 5647 5640 5630 5624 5615 5609 5604 5600 5596 5592 5589 5589
5807 5799 5794 5789 5784 5772 5764 5757 5750 5747 5742 5731 5723 5715 5710 5703 5699 5694 5685 5674 5669 5671 5666 5652 5651 5645 5639 5630 5625 5617 5611 5604 5598 5593 5588 5586 5584 5580
5806 5802 5795 5791 5778 5766 5759 5755 5750 5747 5736 5727 5719 5710 5702 5696 5689 5686 5684 5675 5671 5663 5664 5649 5643 5636 5628 5627 5619 5612 5608 5602 5593 5587 5583 5580 5578 5576
5805 5800 5799 5786 5774 5767 5761 5756 5751 5743 5733 5727 5720 5713 5704 5697 5685 5678 5676 5671 5664 5660 5656 5648 5636 5629 5620 5618 5613 5607 5601 5596 5589 5584 5580 5577 5573 5568
5805 5804 5798 5785 5772 5761 5757 5754 5742 5731 5728 5722 5716 5712 5705 5698 5690 5679 5670 5663 5659 5653 5650 5638 5629 5621 5613 5610 5607 5604 5596 5589 5581 5577 5574 5571 5568 5566
5803 5794 5779 5765 5757 5748 5744 5740 5737 5732 5727 5715 5708 5706 5703 5698 5686 5669 5665 5657 5650 5644 5642 5634 5625 5616 5609 5606 5603 5599 5589 5583 5577 5572 5569 5566 5565 5561
5779 5773 5760 5741 5727 5722 5721 5714 5715 5722 5726 5710 5703 5700 5698 5688 5677 5668 5665 5657 5649 5649 5642 5632 5619 5607 5601 5604 5599 5595 5589 5579 5573 5567 5563 5560 5557 5552
5767 5754 5734 5731 5718 5713 5699 5694 5698 5712 5715 5704 5697 5691 5689 5678 5672 5666 5664 5656 5644 5644 5642 5637 5621 5605 5598 5596 5592 5592 5586 5578 5569 5561 5552 5553 5550 5547
5762 5749 5735 5722 5721 5713 5689 5681 5688 5698 5705 5699 5691 5684 5679 5671 5667 5663 5662 5652 5642 5642 5638 5631 5621 5609 5601 5604 5599 5592 5583 5575 5564 5554 5546 5549 5550 5546
5758 5751 5748 5733 5722 5711 5700 5678 5680 5685 5690 5692 5685 5677 5673 5667 5660 5659 5656 5647 5639 5637 5633 5624 5614 5603 5596 5596 5598 5588 5576 5567 5559 5551 5545 5541 5542 5542
5754 5753 5744 5745 5726 5710 5696 5696 5680 5678 5684 5686 5679 5671 5668 5660 5654 5653 5649 5639 5634 5632 5630 5616 5608 5600 5595 5593 5588 5584 5573 5563 5556 5547 5539 5536 5534 5532
5742 5739 5730 5728 5713 5698 5695 5696 5687 5682 5680 5677 5671 5665 5660 5654 5649 5649 5644 5628 5625 5627 5619 5610 5610 5594 5589 5587 5583 5586 5580 5563 5551 5540 5533 5529 5529 5527
5725 5722 5720 5712 5701 5690 5683 5688 5681 5677 5669 5664 5661 5656 5650 5646 5646 5644 5639 5630 5621 5621 5614 5606 5602 5592 5585 5587 5582 5581 5576 5566 5554 5544 5533 5522 5512 5511
5712 5707 5702 5700 5696 5698 5686 5682 5678 5668 5658 5652 5651 5647 5644 5640 5637 5635 5633 5626 5624 5618 5609 5601 5595 5593 5587 5586 5578 5576 5574 5565 5557 5550 5536 5524 5510 5498